SL-3 DEB, 14229

Orbit data source: Space-Track

SL-3 DEB, 14229 is space debris in SSO originally from a launch on Sun, 24 Jul 1983 UTC launched from the Tyuratam Missile And Space Complex (TTMTR). Debris objects in space refer to the collection of defunct objects orbiting the Earth. Examples of debris include non-operational satellites, rocket bodies, and fragments generated from explosions, collisions, or faulty payload assembly.

Loading next visibility...
Identifier
14229, 1983-075D
Orbit
SSO
Country
Flag of CISCIS
Related business
Manufacturer
Unknown
Mission
Spacecraft
Bus & Motor
Unknown
Mass
Unknown
Launch date (UTC)
1983-07-24 (43 years ago)
Launch vehicle
Unknown
Launch site
Tyuratam Missile And Space Complex (TTMTR)
Object type
Payload
Rocket body
Debris
Shape & HBR
Unknown shape, 0.1 m
Radar Cross Section
Medium (>0.1 m² and <1 m²)

Expand to show TLE details & history
Last TLE update: 2 days ago

TLE from 2 days ago
0 SL-3 DEB
1 14229U 83075D   26171.45933725  .00001537  00000-0  97914-4 0  9996
2 14229  97.8898 168.0411 0026591 320.9950 195.9848 15.10093042331928
Epoch: 2026-06-20T11:01Z
TLE epoch observation values (Epoch: 2026-06-20T11:01:26.738Z)
Latitude
22.89191°
Longitude
-82.65773°
Altitude
556.504 km
Speed
7.576 km/s
True Right ascension
23h 25m 30s
True Declination
22° 45' 55"
Sunlit
Object was in daylight at epoch
Visualization orbit readout
Latitude
Unknown
Longitude
Unknown
Altitude
Unknown
Speed
Unknown
Apparent Right ascension
Unknown
Apparent Declination
Unknown
Sunlit
N/A
Visualization observer readout
Local Sidereal Time
07:08:12
Azimuth
Unknown
Elevation
Unknown
Doppler factor
Unknown
Orbital elements
Apogee altitude
551.293 km
Perigee altitude
514.539 km
Semi-major axis
6,911.053 km
Eccentricity
0.00266
Inclination
97.8898°
RAAN
168.0411°
Arg. of periapsis
320.995°
True anomaly
195.90116°
Mean anomaly
195.9848°
Eccentric anomaly
195.94295°
Mean motion
3.77769 °/min
Orbital period
95.3 mins
BSTAR
0.000097914
Loading maneuver chart data...
Computing Atmospheric mass density...

Documentation

Showing up to 5 results
|